[[[{"header":{"parameterUnit":"kt","parameterCategory":2,"dx":1,"dy":1,"la1":30.253999710083008,"la2":30.299108505249023,"lo1":-89.0895004272461,"lo2":-89.04439544677734,"nx":28,"ny":28,"refTime":"2022-10-17T21:00:00:Z","depth":"0","parameterNumber":2,"parameterNumberName":"U-component_of_CURRENTS"},"data":[-0.3297,-0.3172,-0.319,-0.3005,-0.302,-0.2939,-0.2971,-0.3043,-0.322,-0.3418,-0.3614,-0.3893,-0.3961,-0.3926,-0.3645,-0.3528,-0.3311,-0.3329,-0.3226,-0.3488,-0.3524,-0.3558,-0.3541,-0.3209,-0.3208,-0.2748,-0.2744,-0.2741,-0.3484,-0.3483,-0.3456,-0.3482,-0.3433,-0.3581,-0.3698,-0.3694,-0.3748,-0.4026,-0.4137,-0.4274,-0.4225,-0.4285,-0.4197,-0.4037,-0.4002,-0.3873,-0.3758,-0.3683,-0.4123,-0.4123,-0.3911,-0.3911,-0.3911,-0.3911,-0.3911,-0.3911,-0.3816,-0.3784,-0.3831,-0.3847,-0.3899,-0.3941,-0.3933,-0.4102,-0.4181,-0.4311,-0.4545,-0.4604,-0.4691,-0.4699,-0.4674,-0.45,-0.4527,-0.4321,-0.427,-0.4247,-0.4138,-0.4649,-0.4544,-0.4545,-0.4546,-0.4547,-0.4548,0,-0.4065,-0.4125,-0.4164,-0.4207,-0.4248,-0.4305,-0.4395,-0.4452,-0.466,-0.4738,-0.4827,-0.4863,-0.4945,-0.4884,-0.4853,-0.4809,-0.4575,-0.4707,-0.4527,-0.436,-0.4292,-0.4177,-0.4721,-0.4617,-0.4619,-0.462,-0.4621,-0.4621,-0.4297,-0.4319,-0.4474,-0.4479,-0.4531,-0.4597,-0.4622,-0.4798,-0.4842,-0.4998,-0.4994,-0.5031,-0.5039,-0.4969,-0.497,-0.4905,-0.4758,-0.4741,-0.4768,-0.4583,-0.4514,-0.4478,-0.4386,-0.4637,-0.4635,-0.4633,-0.4632,0,-0.4398,-0.4524,-0.4571,-0.4727,-0.4767,-0.4778,-0.4878,-0.4895,-0.5004,-0.5027,-0.504,-0.5115,-0.5097,-0.5068,-0.5015,-0.4975,-0.4816,-0.4909,-0.4832,-0.4814,-0.4622,-0.457,-0.4371,-0.4249,-0.482,-0.482,-0.4819,0,-0.4566,-0.4588,-0.4755,-0.478,-0.482,-0.4924,-0.4948,-0.5,-0.507,-0.5088,-0.515,-0.5165,-0.5142,-0.5108,-0.5082,-0.5012,-0.5009,-0.4988,-0.4974,-0.4919,-0.4913,-0.4737,-0.4678,-0.4995,-0.4996,-0.4997,-0.4998,0,-0.463,-0.474,-0.4785,-0.4817,-0.4942,-0.4959,-0.5007,-0.5067,-0.5086,-0.5143,-0.5156,-0.5166,-0.5156,-0.5126,-0.5101,-0.5112,-0.5034,-0.5044,-0.5003,-0.5,-0.4913,-0.4906,-0.4688,-0.4999,-0.4999,-0.4999,-0.5,0,-0.4724,-0.4795,-0.4849,-0.4942,-0.4953,-0.4992,-0.5037,-0.5079,-0.5124,-0.5142,-0.5157,-0.5178,-0.5177,-0.5183,-0.5136,-0.5161,-0.5132,-0.5115,-0.5111,-0.5096,-0.5095,-0.492,-0.489,-0.4712,-0.5045,-0.5046,-0.5047,0,-0.4761,-0.4832,-0.4879,-0.4929,-0.4958,-0.4995,-0.5036,-0.5075,-0.5098,-0.5122,-0.5133,-0.5174,-0.5182,-0.5202,-0.5188,-0.5194,-0.5161,-0.5206,-0.5112,-0.5108,-0.5093,-0.5092,-0.502,-0.4909,-0.5059,-0.5058,-0.5057,0,-0.477,-0.4874,-0.4867,-0.4902,-0.4953,-0.497,-0.5011,-0.504,-0.5063,-0.5085,-0.5096,-0.5169,-0.5167,-0.5193,-0.522,-0.5204,-0.5177,-0.5196,-0.5195,-0.513,-0.5108,-0.5107,-0.5098,-0.5187,-0.5187,-0.5186,-0.5066,0,-0.4866,-0.4885,-0.4885,-0.4924,-0.4944,-0.4956,-0.4992,-0.5012,-0.5018,-0.5036,-0.5077,-0.5113,-0.5147,-0.5177,-0.5196,-0.522,-0.5194,-0.5207,-0.5168,-0.5187,-0.5132,-0.5125,-0.5203,-0.5203,-0.5202,-0.5202,0,0,-0.4848,-0.4872,-0.4874,-0.4901,-0.491,-0.4923,-0.4942,-0.4966,-0.4996,-0.4998,-0.4989,-0.5072,-0.5105,-0.5158,-0.5174,-0.5201,-0.5171,-0.5179,-0.5189,-0.5188,-0.5186,-0.5134,-0.5128,-0.5201,-0.5201,-0.5201,-0.5201,0,-0.487,-0.4867,-0.487,-0.4891,-0.4907,-0.4922,-0.4924,-0.4941,-0.4939,-0.4984,-0.4995,-0.5025,-0.509,-0.5111,-0.5135,-0.5191,-0.5164,-0.5215,-0.5202,-0.5187,-0.5186,-0.5185,-0.5134,-0.5128,-0.52,-0.52,-0.52,0,-0.4877,-0.4884,-0.4876,-0.4895,-0.4896,-0.4922,-0.4898,-0.4905,-0.4928,-0.4929,-0.4956,-0.4988,-0.5026,-0.5076,-0.5098,-0.5078,-0.5128,-0.5146,-0.5149,-0.5135,-0.5117,-0.5117,-0.5117,-0.5112,-0.5112,-0.5111,0,0,-0.4888,-0.4884,-0.4898,-0.4897,-0.4899,-0.4905,-0.4908,-0.4907,-0.4917,-0.4917,-0.4934,-0.4959,-0.5006,-0.5015,-0.506,-0.5108,-0.5079,-0.5135,-0.5139,-0.5143,-0.5131,-0.5114,-0.5115,-0.511,-0.511,-0.511,0,0,-0.4883,-0.4885,-0.4886,-0.4887,-0.4898,-0.4904,-0.4898,-0.49,-0.4912,-0.4905,-0.4917,-0.4923,-0.4974,-0.4982,-0.4962,-0.5047,-0.503,-0.5036,-0.5036,-0.5042,-0.5046,-0.502,-0.4955,0,0,0,0,0,-0.4889,-0.489,-0.4892,-0.4892,-0.4901,-0.4915,-0.4917,-0.4897,-0.4879,-0.4881,-0.4891,-0.4893,-0.4967,-0.4949,-0.4963,-0.4995,-0.5093,-0.5096,-0.5099,-0.5114,-0.5119,-0.5124,0,0,0,0,0,0,-0.4889,-0.489,-0.4891,-0.4898,-0.4899,-0.4914,-0.4885,-0.4881,-0.4877,-0.487,-0.4892,-0.4895,-0.4904,-0.4944,-0.4956,-0.4986,-0.4951,-0.5095,-0.5097,-0.5099,-0.5116,-0.512,-0.5124,0,0,0,0,0,-0.4889,-0.489,-0.4902,-0.4898,-0.49,-0.4881,-0.4883,-0.4879,-0.4874,-0.4895,-0.4894,-0.4853,-0.4905,-0.4915,-0.4951,-0.498,-0.4942,-0.4947,-0.5096,-0.5098,-0.51,-0.5118,0,0,0,0,0,0,-0.4889,-0.4898,-0.4902,-0.4903,-0.4872,-0.4879,-0.4877,-0.4877,-0.4899,-0.4898,-0.4858,-0.4853,-0.4907,-0.4914,-0.4921,-0.4976,-0.4936,-0.494,-0.4943,-0.5098,-0.5099,-0.5101,0,0,0,0,0,0,-0.4897,-0.4898,-0.4903,-0.4871,-0.4868,-0.4877,-0.4875,-0.4931,-0.49,-0.4862,-0.4857,-0.4855,-0.49,-0.4914,-0.492,-0.5008,-0.493,-0.4935,-0.4938,-0.494,-0.5099,-0.51,0,0,0,0,0,0,-0.4898,-0.4899,-0.4871,-0.4869,-0.4866,-0.4875,-0.4928,-0.4942,-0.4857,-0.4862,-0.485,-0.4847,-0.4901,-0.4906,-0.4919,-0.5004,-0.5007,-0.493,-0.4933,-0.4936,-0.4937,0,0,0,0,0,0,0,-0.4898,-0.4888,-0.4894,-0.4867,-0.4864,-0.4909,-0.4909,-0.491,-0.4856,-0.4854,-0.4851,-0.4848,-0.4905,-0.491,-0.4915,-0.5002,0,0,-0.493,-0.4932,0,0,0,0,0,0,0,0,-0.4888,-0.4888,-0.4894,-0.4894,-0.4894,-0.4909,-0.4909,-0.491,-0.4856,-0.4854,-0.4851,-0.4849,-0.4907,-0.491,-0.4914,0,0,0,0,0,0,0,0,0,0,0,0,0,0,0,-0.4894,-0.4894,0,-0.4909,-0.4909,-0.491,-0.4856,-0.4854,-0.4852,-0.485,-0.4908,-0.4911,-0.4914,0,0,0,0,0,0,0,0,0,0,0,0,0,0,0,0,0,0,0,0,0,0,0,0,0,0,0,0,0,0,0,0,0,0,0,0,0,0,0,0,0,0,0,0,0,0,0,0,0,0,0,0,0,0,0,0,0,0,0,0,0,0,0,0,0,0,0,0,0]}],[{"header":{"parameterUnit":"kt","parameterCategory":2,"dx":1,"dy":1,"la1":30.253999710083008,"la2":30.299108505249023,"lo1":-89.0895004272461,"lo2":-89.04439544677734,"nx":28,"ny":28,"refTime":"2022-10-17T21:00:00:Z","depth":"0","parameterNumber":3,"parameterNumberName":"V-component_of_CURRENTS"},"data":[-0.1598,-0.1679,-0.1726,-0.1921,-0.2034,-0.2255,-0.2372,-0.2552,-0.2639,-0.2698,-0.2549,-0.2375,-0.1727,-0.0965,-0.0681,-0.0673,-0.0701,-0.0732,-0.0645,-0.0712,-0.0724,-0.0734,-0.0732,-0.0625,-0.0624,-0.0611,-0.061,-0.061,-0.1575,-0.1632,-0.1721,-0.1874,-0.1988,-0.2038,-0.2195,-0.2329,-0.2448,-0.2477,-0.247,-0.209,-0.1791,-0.1468,-0.1006,-0.09,-0.0926,-0.0812,-0.0877,-0.0857,-0.0951,-0.0957,-0.0896,-0.0896,-0.0896,-0.0896,-0.0896,-0.0896,-0.154,-0.1595,-0.1682,-0.1797,-0.1892,-0.2018,-0.2131,-0.2195,-0.226,-0.232,-0.2189,-0.2134,-0.178,-0.1412,-0.1314,-0.1025,-0.1016,-0.0943,-0.0921,-0.0957,-0.0933,-0.1092,-0.0987,-0.0986,-0.0986,-0.0986,-0.0985,0,-0.1528,-0.1552,-0.1637,-0.1755,-0.1844,-0.1947,-0.2026,-0.2063,-0.2088,-0.208,-0.2053,-0.1991,-0.1722,-0.1554,-0.1291,-0.1177,-0.1061,-0.106,-0.098,-0.1017,-0.1094,-0.1035,-0.1172,-0.1113,-0.1113,-0.1113,-0.1113,-0.1113,-0.1464,-0.1528,-0.165,-0.1712,-0.1772,-0.186,-0.1923,-0.1953,-0.1988,-0.1941,-0.1946,-0.1805,-0.1756,-0.1485,-0.1303,-0.1142,-0.1101,-0.1072,-0.1076,-0.1044,-0.0985,-0.1019,-0.1,-0.1116,-0.1115,-0.1115,-0.1115,0,-0.1428,-0.1487,-0.16,-0.1712,-0.1748,-0.1814,-0.1894,-0.1931,-0.1909,-0.1925,-0.1907,-0.1821,-0.1689,-0.1561,-0.1375,-0.1303,-0.1141,-0.112,-0.122,-0.118,-0.1037,-0.1018,-0.0954,-0.0923,-0.103,-0.1028,-0.1027,0,-0.1382,-0.1462,-0.1551,-0.1624,-0.1719,-0.1782,-0.1853,-0.1885,-0.1891,-0.192,-0.1861,-0.1822,-0.1672,-0.1572,-0.1485,-0.133,-0.1321,-0.1217,-0.1166,-0.1213,-0.1215,-0.1106,-0.1082,-0.1194,-0.1194,-0.1195,-0.1195,0,-0.1304,-0.1442,-0.1538,-0.1589,-0.1717,-0.1765,-0.1815,-0.1869,-0.1896,-0.1875,-0.1848,-0.1791,-0.1698,-0.1608,-0.1478,-0.148,-0.1311,-0.1275,-0.1193,-0.1191,-0.1175,-0.1173,-0.1099,-0.1195,-0.1195,-0.1196,-0.1196,0,-0.128,-0.1363,-0.1488,-0.1604,-0.1634,-0.1706,-0.1792,-0.1845,-0.1868,-0.1856,-0.1829,-0.1768,-0.1709,-0.1645,-0.1514,-0.1537,-0.146,-0.1371,-0.1365,-0.1295,-0.123,-0.1225,-0.1244,-0.1172,-0.1294,-0.1295,-0.1296,0,-0.1203,-0.1331,-0.1384,-0.1515,-0.1593,-0.1638,-0.1701,-0.1765,-0.1779,-0.1786,-0.1726,-0.1693,-0.1672,-0.1614,-0.1572,-0.1448,-0.1423,-0.1461,-0.1281,-0.1277,-0.124,-0.1257,-0.13,-0.1258,-0.1306,-0.1305,-0.1304,0,-0.1149,-0.127,-0.1289,-0.1355,-0.1459,-0.1508,-0.1584,-0.1662,-0.1686,-0.1692,-0.17,-0.1672,-0.1614,-0.1591,-0.1527,-0.1469,-0.1439,-0.1414,-0.1408,-0.1396,-0.131,-0.1276,-0.1266,-0.1362,-0.1361,-0.136,-0.1312,0,-0.1158,-0.1225,-0.1248,-0.1357,-0.1408,-0.1457,-0.1512,-0.1548,-0.1555,-0.1581,-0.1566,-0.151,-0.1483,-0.1457,-0.1445,-0.1412,-0.1396,-0.1335,-0.1289,-0.1322,-0.13,-0.1294,-0.1339,-0.1337,-0.1336,-0.1335,0,0,-0.1096,-0.1171,-0.1199,-0.1268,-0.131,-0.1328,-0.1396,-0.1431,-0.1469,-0.1483,-0.1461,-0.1416,-0.1374,-0.1365,-0.1397,-0.1362,-0.1326,-0.1348,-0.1317,-0.1316,-0.1314,-0.1295,-0.1291,-0.1332,-0.1331,-0.1331,-0.1331,0,-0.1107,-0.1133,-0.1182,-0.1231,-0.1285,-0.132,-0.1331,-0.1376,-0.1402,-0.1435,-0.1407,-0.1379,-0.135,-0.1333,-0.1316,-0.1347,-0.1263,-0.1323,-0.1385,-0.1307,-0.1308,-0.1308,-0.129,-0.1287,-0.1327,-0.1327,-0.1327,0,-0.1097,-0.1135,-0.1154,-0.1222,-0.1249,-0.1312,-0.1297,-0.1333,-0.1387,-0.1332,-0.1375,-0.1334,-0.1295,-0.1294,-0.128,-0.126,-0.1216,-0.1227,-0.1234,-0.1244,-0.1161,-0.1163,-0.1165,-0.114,-0.114,-0.114,0,0,-0.1109,-0.1149,-0.1197,-0.1224,-0.1242,-0.1279,-0.1301,-0.1329,-0.1347,-0.1362,-0.1341,-0.1313,-0.1293,-0.1275,-0.1249,-0.1225,-0.1181,-0.1208,-0.1216,-0.1224,-0.1238,-0.1158,-0.1161,-0.1138,-0.1138,-0.1138,0,0,-0.1106,-0.1163,-0.1181,-0.1215,-0.126,-0.13,-0.132,-0.1338,-0.1364,-0.1356,-0.1321,-0.1312,-0.1297,-0.1258,-0.1252,-0.1221,-0.1182,-0.1181,-0.1252,-0.1262,-0.1271,-0.13,-0.1192,0,0,0,0,0,-0.1132,-0.1153,-0.1168,-0.1177,-0.124,-0.1289,-0.13,-0.1338,-0.133,-0.1366,-0.1359,-0.1302,-0.1267,-0.1262,-0.1244,-0.1234,-0.1123,-0.1126,-0.1128,-0.1213,-0.1224,-0.1234,0,0,0,0,0,0,-0.1136,-0.1147,-0.1167,-0.1204,-0.1217,-0.1288,-0.129,-0.1302,-0.133,-0.1336,-0.1311,-0.1301,-0.1279,-0.1265,-0.125,-0.1242,-0.1196,-0.1124,-0.1126,-0.1128,-0.1217,-0.1226,-0.1234,0,0,0,0,0,-0.1139,-0.1148,-0.1241,-0.1204,-0.1216,-0.1265,-0.1291,-0.1301,-0.1335,-0.1294,-0.1291,-0.1362,-0.128,-0.1265,-0.1255,-0.1251,-0.1206,-0.12,-0.1125,-0.1127,-0.1129,-0.1221,0,0,0,0,0,0,-0.1141,-0.1168,-0.1245,-0.1249,-0.1205,-0.1265,-0.1277,-0.13,-0.129,-0.129,-0.1339,-0.1343,-0.128,-0.1268,-0.1257,-0.1258,-0.1213,-0.1208,-0.1205,-0.1127,-0.1128,-0.113,0,0,0,0,0,0,-0.1162,-0.1172,-0.1247,-0.1246,-0.1252,-0.1264,-0.1275,-0.1218,-0.1285,-0.1336,-0.134,-0.134,-0.1247,-0.127,-0.1262,-0.1177,-0.1219,-0.1214,-0.1211,-0.1209,-0.1128,-0.1129,0,0,0,0,0,0,-0.1167,-0.1175,-0.1246,-0.125,-0.1255,-0.1315,-0.121,-0.1247,-0.1369,-0.1333,-0.137,-0.1371,-0.1245,-0.1239,-0.1265,-0.1185,-0.1179,-0.1219,-0.1216,-0.1213,-0.1212,0,0,0,0,0,0,0,-0.1171,-0.1108,-0.1209,-0.1253,-0.1257,-0.129,-0.1292,-0.1294,-0.1369,-0.137,-0.137,-0.1371,-0.1247,-0.1242,-0.1236,-0.1191,0,0,-0.1219,-0.1217,0,0,0,0,0,0,0,0,-0.1105,-0.1108,-0.1209,-0.121,-0.121,-0.1291,-0.1292,-0.1294,-0.1369,-0.1369,-0.137,-0.137,-0.1246,-0.1241,-0.1237,0,0,0,0,0,0,0,0,0,0,0,0,0,0,0,-0.1209,-0.121,0,-0.1291,-0.1292,-0.1294,-0.1369,-0.1369,-0.137,-0.137,-0.1245,-0.1241,-0.1237,0,0,0,0,0,0,0,0,0,0,0,0,0,0,0,0,0,0,0,0,0,0,0,0,0,0,0,0,0,0,0,0,0,0,0,0,0,0,0,0,0,0,0,0,0,0,0,0,0,0,0,0,0,0,0,0,0,0,0,0,0,0,0,0,0,0,0,0,0]}]],[[{"header":{"parameterUnit":"kt","parameterCategory":2,"dx":1,"dy":1,"la1":30.253999710083008,"la2":30.299108505249023,"lo1":-89.0895004272461,"lo2":-89.04439544677734,"nx":28,"ny":28,"refTime":"2022-10-17T21:00:00:Z","depth":"2","parameterNumber":2,"parameterNumberName":"U-component_of_CURRENTS"},"data":[-0.3259,-0.3132,-0.3149,-0.2962,-0.2985,-0.288,-0.2908,-0.2872,-0.2895,-0.2778,-0.2723,-0.2908,-0.3077,-0.2505,-0.2431,-0.2197,-0.2416,-0.2091,-0.3268,-0.3081,-0.3138,-0.3322,-0.3266,0,0,0,0,0,-0.3445,-0.3455,-0.3428,-0.3458,-0.3397,-0.3555,-0.3667,-0.3613,-0.3601,-0.3695,-0.3712,-0.3361,-0.3182,-0.3224,-0.2956,-0.2986,-0.2881,-0.2848,-0.2634,-0.2706,-0.2769,-0.2678,-0.2071,-0.2067,-0.2063,-0.2059,0,0,-0.3783,-0.3752,-0.3806,-0.3823,-0.3875,-0.3913,-0.3905,-0.4036,-0.4096,-0.4141,-0.4399,-0.4287,-0.4281,-0.3977,-0.3824,-0.3712,-0.4058,-0.3819,-0.3835,-0.3861,-0.3832,-0.3789,-0.3529,-0.3535,-0.354,-0.3545,-0.3549,0,-0.4035,-0.4098,-0.414,-0.4187,-0.423,-0.4288,-0.438,-0.4435,-0.4647,-0.4712,-0.4795,-0.4814,-0.4814,-0.4524,-0.4464,-0.4375,-0.4333,-0.4201,-0.4842,-0.3932,-0.3879,-0.3874,-0.3913,-0.3647,-0.3654,-0.3659,-0.3663,-0.3666,-0.4272,-0.4296,-0.446,-0.4467,-0.4523,-0.4591,-0.4616,-0.4798,-0.4841,-0.5,-0.4994,-0.5033,-0.5022,-0.4954,-0.4867,-0.4777,-0.4912,-0.4348,-0.4323,-0.4897,-0.4892,-0.4901,-0.4908,-0.374,-0.373,-0.3723,-0.3716,0,-0.4376,-0.451,-0.4562,-0.4726,-0.4768,-0.478,-0.4884,-0.4899,-0.5013,-0.5034,-0.5047,-0.5124,-0.5106,-0.5081,-0.5028,-0.4988,-0.4941,-0.4921,-0.446,-0.4398,-0.4909,-0.4916,-0.4831,-0.483,-0.4829,-0.4828,-0.4828,0,-0.4553,-0.4578,-0.4756,-0.4782,-0.4824,-0.4933,-0.4957,-0.501,-0.5082,-0.5099,-0.5164,-0.5177,-0.5157,-0.5123,-0.5097,-0.5026,-0.5024,-0.5002,-0.4988,-0.4597,-0.4565,-0.5037,-0.5041,-0.5011,-0.5012,-0.5013,-0.5014,0,-0.4621,-0.4738,-0.4787,-0.4822,-0.4953,-0.4971,-0.502,-0.5081,-0.5101,-0.5158,-0.5171,-0.5181,-0.5172,-0.5142,-0.5118,-0.5129,-0.505,-0.5061,-0.5018,-0.5015,-0.4601,-0.4565,-0.5015,-0.5015,-0.5016,-0.5016,-0.5016,0,-0.472,-0.4796,-0.4854,-0.4954,-0.4965,-0.5005,-0.5051,-0.5094,-0.514,-0.5158,-0.5173,-0.5195,-0.5194,-0.5201,-0.5154,-0.5179,-0.515,-0.5134,-0.5129,-0.5113,-0.5112,-0.4585,-0.4472,-0.5063,-0.5064,-0.5065,-0.5065,0,-0.4758,-0.4835,-0.4886,-0.4939,-0.4971,-0.501,-0.5052,-0.5091,-0.5114,-0.5139,-0.515,-0.5192,-0.52,-0.5221,-0.5207,-0.5214,-0.5181,-0.5226,-0.5131,-0.5127,-0.511,-0.5108,-0.4651,-0.4507,-0.5077,-0.5076,-0.5075,0,-0.4768,-0.4882,-0.4874,-0.4912,-0.4966,-0.4983,-0.5026,-0.5056,-0.5079,-0.5102,-0.5113,-0.5188,-0.5186,-0.5212,-0.5241,-0.5224,-0.5197,-0.5217,-0.5216,-0.515,-0.5127,-0.5124,-0.5115,-0.5208,-0.5207,-0.5206,-0.5085,0,-0.487,-0.4893,-0.4894,-0.4936,-0.4957,-0.497,-0.5008,-0.5028,-0.5033,-0.5052,-0.5094,-0.5132,-0.5167,-0.5197,-0.5217,-0.5241,-0.5216,-0.5229,-0.5189,-0.5209,-0.5153,-0.5145,-0.5226,-0.5225,-0.5225,-0.5225,0,0,-0.4849,-0.4879,-0.4884,-0.4913,-0.4923,-0.4937,-0.4958,-0.4981,-0.5012,-0.5015,-0.5005,-0.5091,-0.5125,-0.518,-0.5196,-0.5223,-0.5193,-0.5201,-0.5211,-0.5209,-0.5208,-0.5155,-0.5149,-0.5224,-0.5224,-0.5224,-0.5224,0,-0.4874,-0.4875,-0.488,-0.4902,-0.4921,-0.4936,-0.4938,-0.4957,-0.4954,-0.5001,-0.5013,-0.5043,-0.511,-0.5132,-0.5157,-0.5214,-0.5186,-0.5238,-0.5224,-0.5209,-0.5208,-0.5207,-0.5155,-0.5149,-0.5223,-0.5223,-0.5223,0,-0.4881,-0.4892,-0.4887,-0.491,-0.4911,-0.4938,-0.4915,-0.4921,-0.4944,-0.4947,-0.4974,-0.5007,-0.5046,-0.5097,-0.512,-0.5099,-0.5149,-0.5168,-0.517,-0.5156,-0.5138,-0.5138,-0.5138,-0.5133,-0.5133,-0.5133,0,0,-0.4893,-0.4892,-0.4911,-0.4912,-0.4915,-0.4922,-0.4925,-0.4924,-0.4934,-0.4934,-0.4951,-0.4977,-0.5025,-0.5035,-0.5081,-0.5129,-0.51,-0.5156,-0.516,-0.5164,-0.5152,-0.5135,-0.5135,-0.5131,-0.5131,-0.5131,0,0,-0.4887,-0.4896,-0.4899,-0.4904,-0.4916,-0.4923,-0.4916,-0.4918,-0.4929,-0.4921,-0.4935,-0.494,-0.4992,-0.5001,-0.498,-0.5066,-0.5049,-0.5055,-0.5055,-0.506,-0.5064,-0.5037,-0.4972,0,0,0,0,0,-0.4898,-0.4901,-0.4904,-0.4906,-0.492,-0.4934,-0.4937,-0.4915,-0.4897,-0.4898,-0.4908,-0.4909,-0.4986,-0.4967,-0.4982,-0.5013,-0.5114,-0.5117,-0.512,-0.5133,-0.5139,-0.5144,0,0,0,0,0,0,-0.4898,-0.4901,-0.4904,-0.4913,-0.4916,-0.4934,-0.4904,-0.49,-0.4895,-0.4887,-0.4908,-0.4911,-0.492,-0.4962,-0.4974,-0.5003,-0.4968,-0.5115,-0.5118,-0.512,-0.5135,-0.514,-0.5144,0,0,0,0,0,-0.4899,-0.4901,-0.4922,-0.4913,-0.4915,-0.4897,-0.4902,-0.4898,-0.489,-0.4913,-0.4912,-0.4869,-0.4922,-0.4931,-0.4969,-0.4997,-0.4959,-0.4964,-0.5117,-0.5119,-0.5121,-0.5138,0,0,0,0,0,0,-0.4899,-0.4906,-0.4922,-0.4923,-0.4887,-0.4894,-0.4893,-0.4896,-0.4915,-0.4915,-0.4876,-0.487,-0.4924,-0.4931,-0.4938,-0.4994,-0.4952,-0.4957,-0.496,-0.5118,-0.512,-0.5121,0,0,0,0,0,0,-0.4904,-0.4906,-0.4923,-0.4891,-0.4888,-0.4892,-0.489,-0.4947,-0.4917,-0.4878,-0.4873,-0.4873,-0.4918,-0.4931,-0.4936,-0.5026,-0.4947,-0.4951,-0.4955,-0.4956,-0.512,-0.5121,0,0,0,0,0,0,-0.4905,-0.4907,-0.4891,-0.4888,-0.4886,-0.4895,-0.4944,-0.4962,-0.4873,-0.4879,-0.4866,-0.4863,-0.4919,-0.4924,-0.4935,-0.5022,-0.5025,-0.4947,-0.495,-0.4952,-0.4954,0,0,0,0,0,0,0,-0.4906,-0.4893,-0.4915,-0.4886,-0.4884,-0.493,-0.4931,-0.4931,-0.4873,-0.487,-0.4867,-0.4864,-0.4922,-0.4927,-0.4931,-0.502,0,0,-0.4947,-0.4949,0,0,0,0,0,0,0,0,-0.4892,-0.4893,-0.4915,-0.4915,-0.4915,-0.493,-0.4931,-0.4931,-0.4872,-0.487,-0.4867,-0.4865,-0.4923,-0.4927,-0.4931,0,0,0,0,0,0,0,0,0,0,0,0,0,0,0,-0.4915,-0.4915,0,-0.493,-0.4931,-0.4931,-0.4872,-0.487,-0.4868,-0.4866,-0.4924,-0.4927,-0.4931,0,0,0,0,0,0,0,0,0,0,0,0,0,0,0,0,0,0,0,0,0,0,0,0,0,0,0,0,0,0,0,0,0,0,0,0,0,0,0,0,0,0,0,0,0,0,0,0,0,0,0,0,0,0,0,0,0,0,0,0,0,0,0,0,0,0,0,0,0]}],[{"header":{"parameterUnit":"kt","parameterCategory":2,"dx":1,"dy":1,"la1":30.253999710083008,"la2":30.299108505249023,"lo1":-89.0895004272461,"lo2":-89.04439544677734,"nx":28,"ny":28,"refTime":"2022-10-17T21:00:00:Z","depth":"2","parameterNumber":3,"parameterNumberName":"V-component_of_CURRENTS"},"data":[-0.1454,-0.1525,-0.157,-0.1739,-0.1868,-0.1995,-0.2104,-0.2021,-0.187,-0.1617,-0.1378,-0.1165,-0.0837,-0.0422,-0.0154,0.0094,0.0,0.0155,-0.0283,-0.0286,-0.032,-0.0226,-0.0182,0,0,0,0,0,-0.1435,-0.1511,-0.16,-0.175,-0.183,-0.1911,-0.2061,-0.2056,-0.2077,-0.189,-0.1789,-0.1312,-0.0947,-0.0658,-0.0134,0.0021,0.0084,-0.0007,0.0037,0.0003,-0.0028,0.0023,0.0309,0.0309,0.031,0.0311,0,0,-0.1419,-0.1474,-0.1562,-0.1676,-0.177,-0.189,-0.2,-0.2004,-0.2049,-0.1973,-0.194,-0.1695,-0.1397,-0.0825,-0.0609,-0.0341,-0.0444,-0.0413,-0.0424,-0.044,-0.0409,-0.0441,-0.0239,-0.0241,-0.0243,-0.0245,-0.0247,0,-0.1407,-0.1431,-0.1517,-0.1635,-0.1725,-0.1825,-0.1905,-0.1942,-0.1969,-0.1951,-0.1922,-0.1847,-0.1493,-0.1164,-0.0872,-0.0741,-0.073,-0.0634,-0.0955,-0.0538,-0.0574,-0.0532,-0.0555,-0.0398,-0.0402,-0.0404,-0.0406,-0.0408,-0.1343,-0.1408,-0.1532,-0.1594,-0.1656,-0.1746,-0.1808,-0.1841,-0.1876,-0.1832,-0.1837,-0.1697,-0.1635,-0.1365,-0.109,-0.0905,-0.103,-0.0718,-0.0689,-0.1033,-0.0989,-0.0998,-0.1005,-0.0447,-0.0442,-0.0438,-0.0435,0,-0.1308,-0.1369,-0.1483,-0.1597,-0.1634,-0.1701,-0.1782,-0.1819,-0.1801,-0.1818,-0.1801,-0.1718,-0.1586,-0.1461,-0.1275,-0.1205,-0.1067,-0.102,-0.088,-0.0811,-0.1011,-0.1017,-0.0934,-0.0932,-0.093,-0.0928,-0.0927,0,-0.1264,-0.1345,-0.1436,-0.1509,-0.1606,-0.167,-0.1742,-0.1775,-0.1783,-0.1813,-0.1758,-0.1719,-0.1573,-0.1473,-0.1387,-0.1231,-0.1224,-0.1118,-0.1065,-0.0901,-0.0886,-0.1094,-0.1094,-0.1098,-0.1098,-0.1099,-0.1099,0,-0.1187,-0.1326,-0.1423,-0.1474,-0.1603,-0.1652,-0.1703,-0.1759,-0.1787,-0.1769,-0.1744,-0.1689,-0.1598,-0.1509,-0.1379,-0.1381,-0.1213,-0.1176,-0.1091,-0.1089,-0.0869,-0.0849,-0.1099,-0.11,-0.11,-0.11,-0.11,0,-0.1163,-0.1247,-0.1372,-0.1489,-0.1519,-0.1592,-0.168,-0.1735,-0.176,-0.1751,-0.1726,-0.1666,-0.1608,-0.1544,-0.1414,-0.1435,-0.1359,-0.1269,-0.1263,-0.119,-0.1122,-0.0902,-0.0868,-0.1191,-0.1191,-0.1192,-0.1193,0,-0.1087,-0.1215,-0.1268,-0.14,-0.1478,-0.1524,-0.1589,-0.1655,-0.1671,-0.1681,-0.1622,-0.1589,-0.1568,-0.1509,-0.1468,-0.1341,-0.1318,-0.1354,-0.1176,-0.1173,-0.1132,-0.1148,-0.095,-0.0891,-0.1202,-0.1201,-0.1201,0,-0.1032,-0.1154,-0.1173,-0.124,-0.1345,-0.1395,-0.1473,-0.1553,-0.1577,-0.1588,-0.1597,-0.1567,-0.1509,-0.1486,-0.1418,-0.1362,-0.1333,-0.1306,-0.13,-0.1292,-0.1205,-0.1167,-0.1157,-0.1253,-0.1252,-0.1251,-0.1208,0,-0.1041,-0.1109,-0.1132,-0.124,-0.1294,-0.1344,-0.1398,-0.1438,-0.1448,-0.1475,-0.1461,-0.1402,-0.1375,-0.1347,-0.1334,-0.1301,-0.1286,-0.1223,-0.118,-0.1211,-0.1191,-0.1186,-0.1225,-0.1224,-0.1222,-0.1221,0,0,-0.0979,-0.1052,-0.1082,-0.1151,-0.1193,-0.1213,-0.1281,-0.132,-0.136,-0.1374,-0.1353,-0.1307,-0.1264,-0.1253,-0.1283,-0.1247,-0.1212,-0.1239,-0.1206,-0.1205,-0.1204,-0.1186,-0.1182,-0.1219,-0.1218,-0.1218,-0.1217,0,-0.0985,-0.1013,-0.1063,-0.1113,-0.1167,-0.1203,-0.1215,-0.1262,-0.1292,-0.1326,-0.1295,-0.1266,-0.1239,-0.122,-0.1202,-0.1231,-0.1152,-0.1209,-0.1274,-0.1196,-0.1197,-0.1197,-0.1181,-0.1179,-0.1214,-0.1214,-0.1214,0,-0.0973,-0.1009,-0.1027,-0.1096,-0.1125,-0.1189,-0.1176,-0.1216,-0.1271,-0.1216,-0.1265,-0.1222,-0.1182,-0.118,-0.1167,-0.1148,-0.1107,-0.1118,-0.1124,-0.1138,-0.1055,-0.1057,-0.1059,-0.1033,-0.1033,-0.1032,0,0,-0.0984,-0.1023,-0.1068,-0.1095,-0.1115,-0.1155,-0.118,-0.1211,-0.1229,-0.1248,-0.1229,-0.1201,-0.118,-0.1164,-0.1137,-0.1115,-0.1072,-0.1099,-0.1107,-0.1115,-0.1132,-0.1052,-0.1055,-0.1031,-0.1031,-0.1031,0,0,-0.0978,-0.1029,-0.1046,-0.1081,-0.1128,-0.1169,-0.1196,-0.1217,-0.125,-0.1242,-0.1208,-0.1199,-0.1185,-0.1147,-0.1142,-0.1112,-0.1074,-0.1073,-0.1144,-0.1153,-0.1161,-0.1194,-0.1085,0,0,0,0,0,-0.0994,-0.1017,-0.1032,-0.104,-0.1105,-0.1156,-0.1169,-0.1214,-0.1208,-0.1253,-0.1244,-0.1191,-0.1156,-0.1151,-0.1134,-0.1126,-0.1017,-0.1019,-0.1022,-0.1106,-0.1117,-0.1126,0,0,0,0,0,0,-0.0997,-0.1007,-0.103,-0.1066,-0.108,-0.1155,-0.1158,-0.1173,-0.1208,-0.1216,-0.1199,-0.119,-0.1168,-0.1154,-0.114,-0.1134,-0.1089,-0.1018,-0.102,-0.1022,-0.1109,-0.1118,-0.1126,0,0,0,0,0,-0.0999,-0.1007,-0.1101,-0.1067,-0.1079,-0.1135,-0.1159,-0.1171,-0.1217,-0.1174,-0.1172,-0.1248,-0.1169,-0.1154,-0.1145,-0.1142,-0.1098,-0.1093,-0.1019,-0.1021,-0.1023,-0.1114,0,0,0,0,0,0,-0.1001,-0.1037,-0.1105,-0.111,-0.1067,-0.1135,-0.1149,-0.117,-0.1173,-0.1173,-0.1216,-0.122,-0.1169,-0.1158,-0.1147,-0.1149,-0.1105,-0.11,-0.1097,-0.1021,-0.1022,-0.1023,0,0,0,0,0,0,-0.1032,-0.1042,-0.1108,-0.1105,-0.1111,-0.1135,-0.1147,-0.1092,-0.1167,-0.1215,-0.122,-0.1217,-0.1129,-0.116,-0.1151,-0.107,-0.1111,-0.1106,-0.1103,-0.1101,-0.1022,-0.1023,0,0,0,0,0,0,-0.1037,-0.1045,-0.1105,-0.111,-0.1115,-0.1186,-0.1083,-0.1121,-0.1254,-0.1212,-0.1255,-0.1256,-0.1126,-0.1122,-0.1154,-0.1077,-0.1072,-0.1111,-0.1108,-0.1105,-0.1104,0,0,0,0,0,0,0,-0.1041,-0.0973,-0.1061,-0.1113,-0.1118,-0.1156,-0.1159,-0.1161,-0.1254,-0.1254,-0.1255,-0.1256,-0.1138,-0.1133,-0.1128,-0.1082,0,0,-0.1111,-0.1109,0,0,0,0,0,0,0,0,-0.0971,-0.0973,-0.1061,-0.1061,-0.1062,-0.1156,-0.1159,-0.1161,-0.1254,-0.1254,-0.1255,-0.1255,-0.1137,-0.1133,-0.1128,0,0,0,0,0,0,0,0,0,0,0,0,0,0,0,-0.1061,-0.1061,0,-0.1157,-0.1158,-0.116,-0.1254,-0.1254,-0.1255,-0.1255,-0.1136,-0.1132,-0.1129,0,0,0,0,0,0,0,0,0,0,0,0,0,0,0,0,0,0,0,0,0,0,0,0,0,0,0,0,0,0,0,0,0,0,0,0,0,0,0,0,0,0,0,0,0,0,0,0,0,0,0,0,0,0,0,0,0,0,0,0,0,0,0,0,0,0,0,0,0]}]],[[{"header":{"parameterUnit":"kt","parameterCategory":2,"dx":1,"dy":1,"la1":30.253999710083008,"la2":30.299108505249023,"lo1":-89.0895004272461,"lo2":-89.04439544677734,"nx":28,"ny":28,"refTime":"2022-10-17T21:00:00:Z","depth":"4","parameterNumber":2,"parameterNumberName":"U-component_of_CURRENTS"},"data":[-0.207,-0.2112,-0.2135,-0.2058,-0.2025,-0.2046,-0.207,-0.2102,-0.2058,-0.2128,-0.2114,-0.2216,-0.2195,-0.2289,-0.2201,-0.2205,-0.2305,-0.2269,-0.2266,-0.2497,-0.2517,-0.2535,-0.2465,0,0,0,0,0,-0.2175,-0.216,-0.2201,-0.217,-0.2255,-0.2249,-0.2294,-0.2319,-0.2338,-0.2281,-0.2292,-0.2304,-0.229,-0.2365,-0.2238,-0.2381,-0.2402,-0.2235,-0.2428,-0.251,-0.2532,-0.2456,0,0,0,0,0,0,-0.2282,-0.2292,-0.2308,-0.2311,-0.2362,-0.2333,-0.238,-0.2347,-0.2317,-0.2359,-0.2391,-0.2486,-0.257,-0.2506,-0.2554,-0.2499,-0.2417,-0.2431,-0.2456,-0.2477,-0.2402,-0.2636,-0.2165,0,0,0,0,0,-0.2248,-0.2357,-0.2343,-0.232,-0.2412,-0.2402,-0.2547,-0.2413,-0.2628,-0.2635,-0.264,-0.2618,-0.2576,-0.2603,-0.2605,-0.2624,-0.2826,-0.2765,-0.2774,-0.2686,-0.2892,-0.2772,-0.2797,-0.2615,-0.2618,-0.262,-0.2621,0,-0.2266,-0.2253,-0.226,-0.2264,-0.2345,-0.2525,-0.2663,-0.2802,-0.2815,-0.2921,-0.2871,-0.2826,-0.2912,-0.274,-0.2818,-0.2809,-0.2789,-0.2824,-0.2731,-0.2931,-0.2799,-0.282,-0.2838,-0.2639,-0.2637,-0.2636,-0.2634,0,-0.2248,-0.2186,-0.2151,-0.2223,-0.227,-0.2483,-0.266,-0.2772,-0.2993,-0.3011,-0.3031,-0.3115,-0.3115,-0.3144,-0.3045,-0.3054,-0.296,-0.2916,-0.338,-0.3239,-0.2863,-0.2875,-0.2668,-0.2661,-0.2656,-0.2651,-0.2647,0,-0.2167,-0.2136,-0.206,-0.2092,-0.2243,-0.2443,-0.2727,-0.2993,-0.3125,-0.3207,-0.3388,-0.3326,-0.3356,-0.3302,-0.3377,-0.3256,-0.3226,-0.312,-0.2963,-0.3182,-0.3194,-0.3063,-0.3062,-0.3068,-0.3068,-0.3068,-0.3067,0,-0.2147,-0.2007,-0.2043,-0.2067,-0.2137,-0.2426,-0.2611,-0.2988,-0.3104,-0.3344,-0.3323,-0.3476,-0.3434,-0.3387,-0.3468,-0.3468,-0.3339,-0.3174,-0.3025,-0.3021,-0.3062,-0.3061,-0.3067,-0.3067,-0.3067,-0.3067,-0.3067,0,-0.2117,-0.1986,-0.2008,-0.2031,-0.2093,-0.2211,-0.2614,-0.2798,-0.3102,-0.3274,-0.3464,-0.3469,-0.3627,-0.3588,-0.3588,-0.3632,-0.3586,-0.3513,-0.3498,-0.3269,-0.306,-0.3195,-0.3355,-0.3357,-0.3359,-0.336,-0.3361,0,-0.2113,-0.1996,-0.2035,-0.2021,-0.1972,-0.2208,-0.2432,-0.2671,-0.2871,-0.3042,-0.3259,-0.3395,-0.361,-0.3687,-0.3691,-0.3609,-0.3617,-0.3686,-0.325,-0.3244,-0.3032,-0.3115,-0.3374,-0.3384,-0.3381,-0.3379,-0.3378,0,-0.2123,-0.1991,-0.2002,-0.1971,-0.2054,-0.2085,-0.232,-0.2535,-0.2679,-0.2923,-0.3114,-0.3477,-0.3548,-0.3631,-0.369,-0.3644,-0.3653,-0.3594,-0.3576,-0.3554,-0.3322,-0.3169,-0.3142,-0.3393,-0.3389,-0.3386,-0.3394,0,-0.2003,-0.1966,-0.1985,-0.1944,-0.2028,-0.206,-0.2141,-0.2322,-0.2499,-0.2605,-0.2934,-0.3019,-0.3225,-0.3347,-0.3445,-0.3551,-0.3555,-0.3339,-0.3189,-0.3321,-0.3329,-0.3318,-0.3391,-0.3387,-0.3383,-0.338,0,0,-0.2019,-0.1953,-0.1977,-0.1959,-0.2026,-0.2018,-0.2045,-0.2115,-0.2228,-0.2421,-0.2444,-0.2813,-0.2901,-0.3093,-0.327,-0.3268,-0.3205,-0.3378,-0.3317,-0.3312,-0.3306,-0.3314,-0.3307,-0.3374,-0.3373,-0.3372,-0.3371,0,-0.1932,-0.1995,-0.1966,-0.1984,-0.1996,-0.1987,-0.2006,-0.2054,-0.2167,-0.2342,-0.2381,-0.2561,-0.2814,-0.2883,-0.2951,-0.3205,-0.3115,-0.3326,-0.3538,-0.3294,-0.3294,-0.3292,-0.3302,-0.3298,-0.3362,-0.3363,-0.3363,0,-0.1911,-0.1884,-0.1891,-0.1883,-0.1913,-0.1902,-0.1913,-0.1958,-0.201,-0.203,-0.2233,-0.2347,-0.2441,-0.2659,-0.2762,-0.271,-0.2974,-0.2992,-0.3012,-0.3056,-0.2794,-0.2799,-0.2803,-0.2727,-0.2725,-0.2723,0,0,-0.186,-0.1859,-0.1826,-0.1862,-0.1879,-0.1891,-0.1923,-0.1917,-0.1969,-0.2013,-0.2122,-0.2247,-0.2372,-0.2464,-0.2565,-0.2763,-0.2649,-0.2915,-0.2945,-0.297,-0.3027,-0.2777,-0.2784,-0.2715,-0.2715,-0.2715,0,0,-0.1829,-0.1773,-0.1775,-0.1803,-0.181,-0.1799,-0.187,-0.1871,-0.1972,-0.2004,-0.2051,-0.2077,-0.2285,-0.2312,-0.2204,-0.259,-0.2464,-0.2487,-0.2585,-0.2622,-0.2652,-0.2691,-0.2173,0,0,0,0,0,-0.173,-0.1766,-0.1768,-0.177,-0.1786,-0.1792,-0.1804,-0.1832,-0.1858,-0.1898,-0.1986,-0.1988,-0.2278,-0.2182,-0.221,-0.2397,-0.2618,-0.2636,-0.2652,-0.2822,-0.2862,-0.2895,0,0,0,0,0,0,-0.1729,-0.1725,-0.1768,-0.1746,-0.1752,-0.1791,-0.1776,-0.1786,-0.1853,-0.1858,-0.1971,-0.1989,-0.2009,-0.2169,-0.2194,-0.2374,-0.2165,-0.2625,-0.264,-0.2653,-0.2836,-0.2868,-0.2896,0,0,0,0,0,-0.1729,-0.1726,-0.1735,-0.1749,-0.1754,-0.1791,-0.1775,-0.1784,-0.1858,-0.1904,-0.1924,-0.1881,-0.2007,-0.2034,-0.2184,-0.2364,-0.2148,-0.2157,-0.2635,-0.2646,-0.2656,-0.2851,0,0,0,0,0,0,-0.1729,-0.1756,-0.1739,-0.1744,-0.174,-0.1793,-0.1797,-0.1782,-0.1904,-0.192,-0.1811,-0.1813,-0.2006,-0.2028,-0.2049,-0.2363,-0.2134,-0.2143,-0.2149,-0.2643,-0.2652,-0.266,0,0,0,0,0,0,-0.1758,-0.1759,-0.1742,-0.1728,-0.1733,-0.1794,-0.1797,-0.1895,-0.1909,-0.1808,-0.181,-0.1811,-0.1998,-0.2023,-0.204,-0.219,-0.2123,-0.2132,-0.2138,-0.2142,-0.2651,-0.2658,0,0,0,0,0,0,-0.176,-0.1762,-0.1728,-0.1731,-0.1735,-0.1797,-0.1887,-0.1923,-0.1838,-0.1805,-0.1836,-0.1836,-0.1994,-0.2011,-0.2033,-0.2176,-0.2187,-0.2123,-0.2129,-0.2134,-0.2137,0,0,0,0,0,0,0,-0.1762,-0.1729,-0.1702,-0.1733,-0.1736,-0.1788,-0.179,-0.1792,-0.1838,-0.1837,-0.1836,-0.1836,-0.2072,-0.2082,-0.2092,-0.2165,0,0,-0.2122,-0.2127,0,0,0,0,0,0,0,0,-0.1731,-0.1729,-0.1703,-0.1703,-0.1704,-0.1788,-0.179,-0.1791,-0.1837,-0.1837,-0.1837,-0.1836,-0.2074,-0.2082,-0.209,0,0,0,0,0,0,0,0,0,0,0,0,0,0,0,-0.1703,-0.1703,0,-0.1788,-0.179,-0.1791,-0.1837,-0.1837,-0.1837,-0.1836,-0.2077,-0.2083,-0.209,0,0,0,0,0,0,0,0,0,0,0,0,0,0,0,0,0,0,0,0,0,0,0,0,0,0,0,0,0,0,0,0,0,0,0,0,0,0,0,0,0,0,0,0,0,0,0,0,0,0,0,0,0,0,0,0,0,0,0,0,0,0,0,0,0,0,0,0,0]}],[{"header":{"parameterUnit":"kt","parameterCategory":2,"dx":1,"dy":1,"la1":30.253999710083008,"la2":30.299108505249023,"lo1":-89.0895004272461,"lo2":-89.04439544677734,"nx":28,"ny":28,"refTime":"2022-10-17T21:00:00:Z","depth":"4","parameterNumber":3,"parameterNumberName":"V-component_of_CURRENTS"},"data":[-0.0509,-0.0588,-0.0617,-0.0719,-0.0748,-0.0821,-0.0836,-0.0817,-0.0807,-0.0771,-0.0645,-0.0577,-0.0329,-0.0497,-0.0093,-0.0034,0.0092,0.0344,0.0348,0.0537,0.0538,0.0539,0.0417,0,0,0,0,0,-0.0492,-0.0525,-0.0613,-0.0635,-0.0731,-0.0728,-0.078,-0.077,-0.0734,-0.0772,-0.074,-0.0631,-0.039,-0.0293,-0.0097,-0.0018,0.0276,0.0219,0.0376,0.0538,0.0539,0.042,0,0,0,0,0,0,-0.0439,-0.0484,-0.0485,-0.0525,-0.0597,-0.0648,-0.0662,-0.0674,-0.0716,-0.0702,-0.0722,-0.059,-0.052,-0.0253,-0.0027,0.0179,0.022,0.0295,0.0309,0.0313,0.0183,0.0297,0.0134,0,0,0,0,0,-0.0334,-0.0328,-0.0359,-0.0378,-0.0406,-0.0497,-0.0488,-0.0546,-0.0516,-0.0539,-0.0568,-0.0463,-0.0403,-0.0201,0.0042,0.0265,0.0447,0.0514,0.0516,0.0472,0.0592,0.0507,0.0504,0.0543,0.0544,0.0544,0.0544,0,-0.0204,-0.0214,-0.0212,-0.0241,-0.0227,-0.0248,-0.0275,-0.0242,-0.0283,-0.0348,-0.0397,-0.0358,-0.0275,-0.0138,0.0055,0.0367,0.0402,0.0517,0.0469,0.0594,0.051,0.0505,0.0501,0.0545,0.0545,0.0545,0.0544,0,-0.0135,-0.0071,-0.0123,-0.008,-0.0078,-0.0099,-0.0174,-0.0205,-0.0148,-0.0239,-0.0211,-0.0164,-0.0074,0.0084,0.0175,0.0292,0.0398,0.0459,0.0581,0.049,0.0506,0.0501,0.0546,0.0546,0.0546,0.0545,0.0545,0,0.0007,-0.0047,0.0041,0.0008,-0.0035,-0.002,-0.0084,-0.0045,-0.005,-0.0092,0.0065,0.0027,0.0145,0.018,0.0359,0.044,0.0383,0.0508,0.0427,0.0402,0.0399,0.0406,0.0403,0.0416,0.0415,0.0414,0.0413,0,0.0107,0.007,0.0042,0.0014,-0.0024,-0.0032,-0.0051,-0.0026,-0.0067,0.0047,0.0033,0.0189,0.0178,0.0277,0.0406,0.0407,0.0434,0.033,0.0407,0.041,0.0397,0.0397,0.0411,0.0411,0.0411,0.041,0.041,0,0.0181,0.0206,0.0141,0.0102,0.0092,0.0002,-0.0033,-0.0087,-0.003,0.0035,0.0162,0.0222,0.0324,0.037,0.044,0.0425,0.0492,0.048,0.0477,0.0474,0.0327,0.0467,0.0452,0.0451,0.0451,0.045,0.045,0,0.0276,0.0249,0.0259,0.0127,0.0116,0.0086,0.0034,0.0009,0.0043,0.0065,0.0172,0.0207,0.0361,0.0415,0.0438,0.0387,0.0456,0.0429,0.0352,0.0356,0.0352,0.0326,0.0275,0.044,0.0441,0.0442,0.0443,0,0.0351,0.0408,0.0386,0.0369,0.0292,0.0221,0.0156,0.013,0.0146,0.0176,0.0213,0.0265,0.0394,0.0396,0.0422,0.0417,0.0446,0.0433,0.0426,0.0542,0.0357,0.0323,0.0327,0.0278,0.0277,0.0277,0.0436,0,0.0424,0.044,0.0438,0.0397,0.0349,0.0292,0.0245,0.0227,0.0261,0.0274,0.0317,0.0312,0.0354,0.0327,0.0378,0.0373,0.0426,0.0288,0.0337,0.03,0.0377,0.0383,0.0323,0.0323,0.0323,0.0323,0,0,0.0472,0.0504,0.0564,0.053,0.0503,0.0483,0.0416,0.0379,0.0321,0.0366,0.0393,0.0393,0.0378,0.0357,0.0386,0.0308,0.033,0.0452,0.0306,0.0304,0.0303,0.0374,0.0379,0.0323,0.0323,0.0323,0.0323,0,0.0488,0.058,0.0593,0.0556,0.0538,0.0489,0.0485,0.0445,0.0455,0.04,0.0415,0.0437,0.0393,0.0385,0.0371,0.0312,0.0363,0.0301,0.0425,0.0307,0.0305,0.0304,0.0374,0.0378,0.0323,0.0323,0.0323,0,0.0525,0.0555,0.0577,0.058,0.0568,0.0498,0.0555,0.0521,0.0455,0.0501,0.0468,0.0477,0.045,0.0412,0.0403,0.0429,0.0409,0.0395,0.0393,0.0506,0.039,0.0386,0.0384,0.0428,0.0429,0.043,0,0,0.0529,0.0572,0.0559,0.0575,0.0585,0.0553,0.0545,0.0522,0.0497,0.0497,0.0507,0.0504,0.047,0.0479,0.0439,0.0415,0.0437,0.0411,0.0406,0.0402,0.051,0.0395,0.0391,0.0432,0.0432,0.0432,0,0,0.0498,0.054,0.056,0.0609,0.0556,0.05,0.0519,0.0512,0.0495,0.0523,0.0536,0.0537,0.0509,0.0508,0.0538,0.0481,0.0496,0.049,0.0506,0.05,0.0495,0.0638,0.0578,0,0,0,0,0,0.049,0.0532,0.0551,0.056,0.0564,0.0489,0.0482,0.0501,0.0554,0.0529,0.0539,0.0574,0.0514,0.0541,0.0536,0.0539,0.0463,0.0457,0.0452,0.0464,0.0457,0.0451,0,0,0,0,0,0,0.0492,0.0501,0.0549,0.0506,0.0508,0.049,0.0538,0.054,0.0556,0.0563,0.0566,0.0572,0.0569,0.0545,0.054,0.0544,0.058,0.0461,0.0456,0.0452,0.0462,0.0456,0.0451,0,0,0,0,0,0.0495,0.0501,0.0526,0.0503,0.0505,0.0524,0.0541,0.0542,0.0552,0.0554,0.0559,0.0577,0.0566,0.0566,0.0542,0.0545,0.0583,0.0581,0.0458,0.0454,0.0451,0.0459,0,0,0,0,0,0,0.0496,0.047,0.0525,0.0524,0.0538,0.0524,0.0528,0.0545,0.0543,0.0548,0.0562,0.0568,0.0563,0.0564,0.0564,0.0546,0.0586,0.0584,0.0583,0.0455,0.0452,0.045,0,0,0,0,0,0,0.0467,0.0469,0.0524,0.0567,0.0571,0.0524,0.0528,0.05,0.0544,0.0549,0.0555,0.0565,0.0592,0.0562,0.0562,0.0514,0.0588,0.0586,0.0585,0.0584,0.0453,0.045,0,0,0,0,0,0,0.0467,0.0468,0.0567,0.0569,0.0572,0.0549,0.0499,0.0517,0.055,0.0549,0.0559,0.0563,0.0591,0.0589,0.056,0.0511,0.0513,0.0588,0.0586,0.0586,0.0585,0,0,0,0,0,0,0,0.0466,0.047,0.0547,0.0571,0.0574,0.0514,0.0512,0.051,0.0551,0.0554,0.0558,0.0561,0.0597,0.0595,0.0593,0.051,0,0,0.0588,0.0587,0,0,0,0,0,0,0,0,0.0468,0.047,0.0547,0.0547,0.0548,0.0514,0.0512,0.0511,0.0551,0.0554,0.0557,0.056,0.0597,0.0595,0.0594,0,0,0,0,0,0,0,0,0,0,0,0,0,0,0,0.0547,0.0547,0,0.0513,0.0512,0.0511,0.0552,0.0554,0.0557,0.0559,0.0596,0.0595,0.0594,0,0,0,0,0,0,0,0,0,0,0,0,0,0,0,0,0,0,0,0,0,0,0,0,0,0,0,0,0,0,0,0,0,0,0,0,0,0,0,0,0,0,0,0,0,0,0,0,0,0,0,0,0,0,0,0,0,0,0,0,0,0,0,0,0,0,0,0,0]}]]]